THOR ABLESTAR DEB, 334

Orbit data source: Space-Track

THOR ABLESTAR DEB, 334 is space debris in LEO originally from a launch on Thu, 29 Jun 1961 UTC launched from the Air Force Eastern Test Range (AFETR). Debris objects in space refer to the collection of defunct objects orbiting the Earth. Examples of debris include non-operational satellites, rocket bodies, and fragments generated from explosions, collisions, or faulty payload assembly.

Loading next visibility...
Identifier
334, 1961-015DL
Orbit
LEO
Last TLE update
11 hours ago
Origin
Manufacturer
Unknown
Mission
Spacecraft
Bus & Motor
Unknown
Mass
Unknown
Launch date (UTC)
1961-06-29 (64 years ago)
Launch vehicle
Unknown
Launch site
Air Force Eastern Test Range (AFETR)
Object type
Payload
Rocket body
Debris
Shape & HBR
Unknown
Radar Cross Section
Small (<0.1 m²)

Expand to show TLE details & history

TLE from 11 hours ago
0 THOR ABLESTAR DEB
1   334U 61015DL  25115.32092935  .00000112  00000-0  14418-3 0  9995
2   334  66.9216 120.6627 0074996  40.5414 320.1219 13.91656925238355
Epoch: 2025-04-25T07:42Z
Definitive object data (Epoch: 2025-04-25T07:42:08.295Z)
Latitude
0.00002°
Longitude
151.54846°
Altitude
883.063 km
Speed
7.432 km/s
True Right ascension
08h 02m 39s
True Declination
0° 00' 00"
Sunlit
Object was in daylight at TLE epoch
Visualization TLE readout
Latitude
65.24342°
Longitude
-96.34767°
Altitude
905.011 km
Speed
7.42 km/s
Apparent Right ascension
14h 26m 43s
Apparent Declination
17° 59' 10"
Sunlit
Object is in daylight
Visualization observer readout
Local Sidereal Time
01:46:54
Azimuth
348.896° N
Elevation
-31.358°
Doppler factor
1
Orbital elements
Apogee altitude
975.951 km
Perigee altitude
866.467 km
Semi-major axis
7,299.346 km
Eccentricity
0.0074996
Inclination
66.9216°
RAAN
120.6627°
Arg. of periapsis
40.5414°
True anomaly
319.56691°
Mean anomaly
320.1219°
Eccentric anomaly
319.84481°
Mean motion
3.4803 °/min
BSTAR
0.00014418
Orbital period
103.44 mins
Loading maneuver chart data...
Loading SW <> Apogee altitude chart data...

THOR ABLESTAR DEB Visibility forecast

Observer location: undefined°, undefined°

Span
Click to sort rows by Start time (UTC) header in descending order
Start Az.
Max El. time (UTC)
Max El. Az.
Max El.
End time (UTC)
End Az.
10 mins2025-04-26 01:03:16.716Z171.824° S2025-04-26 01:08:16.716Z110.994° ESE28.96°2025-04-26 01:13:16.716Z47.894° ENE
8 mins2025-04-26 02:51:16.716Z252.781° W2025-04-26 02:54:16.716Z300.067° NW30.823°2025-04-26 02:59:16.716Z11.175° NNE
9 mins2025-04-26 10:07:16.716Z354.817° N2025-04-26 10:11:16.716Z51.759° ENE30.041°2025-04-26 10:16:16.716Z114.623° SE
10 mins2025-04-26 11:53:16.716Z310.618° NW2025-04-26 11:57:16.716Z258.273° W32.068°2025-04-26 12:03:16.716Z183.052° SSW
|